DW0148 Weather Reports


time (UTC)temp
F
wind
direction
speed
knots
gust
knots
rain 1hr
in
rain 24hr
in
rain mn
in
humidity
%
barometer
mb
20260503055055 41 77 0.0 0.0 0.00 0.05 0.05 95 1017.6
20260503054554 42 77 0.0 0.0 0.00 0.05 0.05 95 1017.3
20260503054052 42 77 0.0 0.0 0.00 0.05 0.05 95 1017.3
20260503053551 42 78 0.0 0.0 0.00 0.05 0.05 95 1017.3
20260503053050 42 79 0.0 0.0 0.00 0.05 0.05 95 1017.3
20260503052549 42 77 0.0 0.0 0.00 0.05 0.05 95 1017.3
20260503052047 42 77 0.0 0.0 0.00 0.05 0.05 94 1017.3
20260503051546 43 78 0.0 0.0 0.00 0.05 0.05 94 1017.3
20260503051014 43 77 0.0 0.0 0.00 0.05 0.05 94 1017.3
20260503050513 43 79 0.0 0.0 0.00 0.05 0.05 94 1017.3
20260503050012 43 77 0.0 0.0 0.00 0.05 0.05 94 1016.9
20260503045509 43 77 0.0 0.0 0.00 0.05 0.05 94 1016.9
20260503044905 43 79 0.0 0.0 0.00 0.05 0.05 94 1016.9
20260503044311 44 79 0.0 0.9 0.00 0.05 0.05 94 1016.9
20260503043809 44 79 0.0 1.7 0.00 0.05 0.05 94 1016.9
20260503043308 44 78 0.0 1.7 0.00 0.05 0.05 94 1016.9
20260503042807 44 78 0.9 1.7 0.00 0.05 0.05 94 1016.9
20260503042305 44 77 0.9 1.7 0.00 0.05 0.05 94 1016.9
20260503041805 44 91 0.0 0.9 0.00 0.05 0.05 94 1016.9
20260503041303 44 88 0.0 0.0 0.00 0.05 0.05 93 1016.9
20260503040802 44 87 0.0 0.0 0.00 0.05 0.05 93 1016.9
20260503040229 45 88 0.0 0.0 0.00 0.05 0.05 93 1016.9
20260503035726 45 88 0.0 0.0 0.00 0.05 0.05 93 1016.9
20260503035225 45 87 0.0 0.0 0.00 0.05 0.05 93 1016.9
20260503034724 45 88 0.0 0.0 0.00 0.05 0.05 93 1016.9
20260503034223 46 88 0.0 0.9 0.00 0.05 0.05 93 1016.9
20260503033722 46 88 0.0 0.9 0.01 0.05 0.05 93 1016.6
20260503033221 46 88 0.0 0.9 0.01 0.05 0.05 93 1016.6
20260503032719 47 88 0.0 0.9 0.01 0.05 0.05 93 1016.6
20260503032218 47 135 0.0 0.9 0.01 0.05 0.05 92 1016.6
20260503031612 47 135 0.0 0.9 0.01 0.05 0.05 92 1016.6
20260503031111 47 136 0.0 0.9 0.01 0.05 0.05 92 1016.6
20260503030609 48 135 0.9 0.9 0.01 0.05 0.05 91 1016.6
20260503030108 48 136 0.9 0.9 0.01 0.05 0.05 91 1016.6
20260503025607 48 136 0.0 0.9 0.01 0.05 0.05 91 1016.6
20260503025106 49 135 0.0 0.9 0.02 0.05 0.05 91 1016.6
20260503024605 49 135 0.0 1.7 0.04 0.05 0.05 91 1016.6
20260503024103 49 129 0.0 1.7 0.05 0.05 0.05 91 1016.6
20260503023602 49 131 0.0 1.7 0.04 0.04 0.04 90 1016.6
20260503023101 49 131 0.0 1.7 0.04 0.04 0.04 89 1016.6
20260503022529 49 52 0.0 0.9 0.04 0.04 0.04 90 1016.6
20260503021957 49 52 0.9 0.9 0.04 0.04 0.04 89 1016.6
20260503021456 49 52 0.9 1.7 0.04 0.04 0.04 89 1016.6
20260503020955 50 52 0.0 2.6 0.04 0.04 0.04 88 1016.9
20260503020454 50 52 0.9 3.5 0.04 0.04 0.04 87 1016.9
20260503015953 50 81 0.9 4.3 0.04 0.04 0.04 86 1016.9
20260503015452 51 200 0.9 6.1 0.04 0.04 0.04 85 1016.9
20260503014951 51 41 1.7 6.1 0.03 0.03 0.03 83 1016.6
20260503014450 52 129 1.7 6.1 0.01 0.01 0.01 79 1016.3
20260503013917 51 289 1.7 6.1 0.00 0.00 0.00 78 1016.3
20260503013416 50 27 0.9 1.7 0.00 0.00 0.00 74 1015.9
20260503012844 50 212 0.9 0.9 0.00 0.00 0.00 74 1015.6
20260503012343 50 165 0.0 0.0 0.00 0.00 0.00 75 1015.2
20260503011841 50 165 0.0 0.0 0.00 0.00 0.00 74 1015.2
20260503011340 50 165 0.0 0.0 0.00 0.00 0.00 74 1014.9
20260503010705 50 165 0.0 0.0 0.00 0.00 0.00 73 1014.9
20260503010133 51 165 0.0 0.0 0.00 0.00 0.00 72 1014.9
20260503005632 51 165 0.0 0.0 0.00 0.00 0.00 71 1014.6
20260503005131 52 165 0.0 0.0 0.00 0.00 0.00 70 1014.6
20260503004528 52 165 0.0 0.0 0.00 0.00 0.00 68 1014.6
20260503003955 53 165 0.0 0.0 0.00 0.00 0.00 66 1014.2
20260503003454 54 165 0.0 0.0 0.00 0.00 0.00 65 1014.2
20260503002952 54 165 0.0 0.0 0.00 0.00 0.00 65 1014.2
20260503002451 55 165 0.0 0.0 0.00 0.00 0.00 63 1014.2
20260503001950 55 165 0.0 0.9 0.00 0.00 0.00 61 1014.2
20260503001417 56 165 0.0 0.9 0.00 0.00 0.00 59 1014.2
20260503000916 57 165 0.0 0.9 0.00 0.00 0.00 58 1013.9
20260503000415 57 203 0.0 0.9 0.00 0.00 0.00 57 1013.9
20260502235842 58 266 0.0 2.6 0.00 0.00 0.00 54 1013.9
20260502235342 58 267 0.0 5.2 0.00 0.00 0.00 53 1013.5
20260502234840 59 134 0.0 5.2 0.00 0.00 0.00 51 1013.5
20260502234339 59 218 0.9 6.1 0.00 0.00 0.00 51 1013.5
20260502233838 59 24 2.6 6.1 0.00 0.00 0.00 48 1013.5
20260502233338 59 42 0.9 3.5 0.00 0.00 0.00 48 1013.5
20260502232837 59 69 0.9 1.7 0.00 0.00 0.00 50 1013.2
20260502232336 59 80 0.9 1.7 0.00 0.00 0.00 50 1013.2
20260502231835 60 37 0.9 4.3 0.00 0.00 0.00 51 1013.2
20260502231334 60 39 0.9 4.3 0.00 0.00 0.00 45 1013.2
20260502230833 60 24 1.7 5.2 0.00 0.00 0.00 46 1013.2
20260502230331 60 38 1.7 5.2 0.00 0.00 0.00 45 1013.2
20260502225830 60 66 0.9 4.3 0.00 0.00 0.00 46 1013.2
20260502225258 61 61 1.7 7.8 0.00 0.00 0.00 45 1013.2
20260502224708 61 44 1.7 8.7 0.00 0.00 0.00 46 1013.2
20260502224135 61 32 2.6 8.7 0.00 0.00 0.00 44 1013.2
20260502223634 61 64 1.7 5.2 0.00 0.00 0.00 46 1013.5
20260502223133 61 46 2.6 5.2 0.00 0.00 0.00 44 1013.5
20260502222631 62 336 0.9 7.8 0.00 0.00 0.00 44 1013.2
20260502222131 62 71 1.7 7.8 0.00 0.00 0.00 45 1013.2
20260502221629 62 51 1.7 8.7 0.00 0.00 0.00 43 1013.2
20260502221128 63 13 1.7 8.7 0.00 0.00 0.00 44 1013.2
20260502220628 63 347 1.7 7.8 0.00 0.00 0.00 44 1013.2
20260502220024 62 55 1.7 5.2 0.00 0.00 0.00 45 1013.2
20260502215451 63 16 0.9 6.1 0.00 0.00 0.00 44 1012.9
20260502214950 63 94 0.9 6.1 0.00 0.00 0.00 42 1012.9
20260502214449 64 94 0.9 7.0 0.00 0.00 0.00 41 1012.9
20260502213948 64 138 1.7 7.0 0.00 0.00 0.00 41 1012.9
20260502213447 65 276 0.9 4.3 0.00 0.00 0.00 42 1012.9
20260502212843 64 245 0.9 5.2 0.00 0.00 0.00 44 1012.9
20260502212342 64 257 0.9 5.2 0.00 0.00 0.00 40 1012.9
20260502211840 64 314 0.9 5.2 0.00 0.00 0.00 38 1012.9
20260502211308 63 39 1.7 5.2 0.00 0.00 0.00 40 1012.9
20260502210807 64 50 1.7 5.2 0.00 0.00 0.00 40 1012.9
20260502210203 64 104 1.7 7.0 0.00 0.00 0.00 41 1012.9
20260502205702 64 38 1.7 7.0 0.00 0.00 0.00 42 1012.9
20260502205130 64 50 2.6 7.8 0.00 0.00 0.00 41 1012.9
20260502204630 64 50 3.5 7.8 0.00 0.00 0.00 40 1012.9
20260502204129 64 39 2.6 7.0 0.00 0.00 0.00 40 1012.9
20260502203628 65 69 1.7 6.1 0.00 0.00 0.00 37 1012.9
20260502203055 66 33 3.5 6.1 0.00 0.00 0.00 36 1012.9
20260502202554 65 239 0.9 6.1 0.00 0.00 0.00 40 1012.9
20260502202021 66 45 3.5 6.1 0.00 0.00 0.00 38 1012.9
20260502201517 66 41 1.7 6.1 0.00 0.00 0.00 39 1012.9
20260502201016 65 265 0.9 7.0 0.00 0.00 0.00 40 1012.9
20260502200515 65 69 3.5 7.0 0.00 0.00 0.00 39 1012.9
20260502200014 64 237 0.9 4.3 0.00 0.00 0.00 39 1012.9
20260502195513 64 70 0.9 6.1 0.00 0.00 0.00 38 1013.2
20260502195011 65 27 1.7 6.1 0.00 0.00 0.00 37 1013.2
20260502194511 65 34 1.7 6.1 0.00 0.00 0.00 38 1013.2
20260502193938 65 107 0.9 6.1 0.00 0.00 0.00 36 1013.2
20260502193435 64 63 1.7 7.0 0.00 0.00 0.00 37 1013.2
20260502192934 64 54 2.6 7.0 0.00 0.00 0.00 39 1013.2
20260502192433 64 58 1.7 4.3 0.00 0.00 0.00 41 1013.2
20260502191901 64 285 0.9 6.1 0.00 0.00 0.00 41 1013.2
20260502191400 64 37 0.9 8.7 0.00 0.00 0.00 40 1013.2
20260502190859 65 49 1.7 8.7 0.00 0.00 0.00 35 1013.2
20260502190358 65 41 1.7 9.6 0.00 0.00 0.00 35 1013.2
20260502185857 65 56 2.6 9.6 0.00 0.00 0.00 36 1013.2
20260502185356 65 52 2.6 8.7 0.00 0.00 0.00 36 1013.2
20260502184855 63 101 0.9 11.3 0.00 0.00 0.00 38 1013.2
20260502184354 63 40 1.7 11.3 0.00 0.00 0.00 38 1013.2
20260502183822 63 118 1.7 12.2 0.00 0.00 0.00 34 1013.5
20260502183321 63 33 3.5 12.2 0.00 0.00 0.00 38 1013.5
20260502182819 63 51 0.9 8.7 0.00 0.00 0.00 38 1013.5
20260502182318 63 55 2.6 8.7 0.00 0.00 0.00 39 1013.5
20260502181817 64 45 4.3 8.7 0.00 0.00 0.00 35 1013.5
20260502181316 64 65 2.6 7.0 0.00 0.00 0.00 36 1013.9
20260502180743 64 264 1.7 7.8 0.00 0.00 0.00 40 1013.5
20260502180242 64 68 2.6 8.7 0.00 0.00 0.00 39 1013.9
20260502170125 62 48 4.3 13.0 0.00 0.00 0.00 36 1014.2
20260502164121 62 51 2.6 8.7 0.00 0.00 0.00 41 1014.2
20260502163619 61 46 2.6 8.7 0.00 0.00 0.00 44 1014.6
20260502163118 61 45 3.5 8.7 0.00 0.00 0.00 41 1014.6
20260502162617 61 42 3.5 7.0 0.00 0.00 0.00 44 1014.6
20260502162044 61 40 2.6 7.8 0.00 0.00 0.00 42 1014.6
20260502161543 61 50 2.6 8.7 0.00 0.00 0.00 43 1014.6
20260502161042 61 50 2.6 8.7 0.00 0.00 0.00 45 1014.6
20260502160541 61 316 0.9 6.1 0.00 0.00 0.00 48 1014.6
20260502151722 59 48 2.6 8.7 0.00 0.00 0.00 47 1014.6
20260502151220 59 34 2.6 8.7 0.00 0.00 0.00 48 1014.6
20260502150719 59 38 4.3 8.7 0.00 0.00 0.00 48 1014.6
20260502150218 58 53 1.7 7.8 0.00 0.00 0.00 48 1014.6
20260502130327 53 28 3.5 7.8 0.00 0.00 0.00 63 1014.6
20260502123321 51 16 0.9 1.7 0.00 0.00 0.00 75 1014.2
20260502122820 50 73 0.9 1.7 0.00 0.00 0.00 74 1014.2
20260502122319 50 32 0.9 1.7 0.00 0.00 0.00 74 1014.2
20260502121815 50 75 0.0 0.9 0.00 0.00 0.00 75 1014.2
20260502121313 49 75 0.0 1.7 0.00 0.00 0.00 76 1014.2
20260502120811 49 67 0.0 1.7 0.00 0.00 0.00 77 1014.2
20260502120239 49 267 0.9 0.9 0.00 0.00 0.00 80 1014.2
20260502115738 48 193 0.0 0.0 0.00 0.00 0.00 81 1013.9
20260502115236 48 194 0.0 0.0 0.00 0.00 0.00 80 1013.9
20260502114734 48 194 0.0 0.0 0.00 0.00 0.00 82 1013.9
20260502114234 48 194 0.0 0.9 0.00 0.00 0.00 83 1013.9
20260502113722 48 194 0.0 0.9 0.00 0.00 0.00 83 1013.5
20260502113221 48 194 0.0 0.9 0.00 0.00 0.00 83 1013.9
20260502112720 47 194 0.0 0.9 0.00 0.00 0.00 82 1013.5
20260502112218 47 194 0.9 0.9 0.00 0.00 0.00 82 1013.5
20260502111718 47 104 0.0 0.0 0.00 0.00 0.00 81 1013.5
20260502111215 47 105 0.0 0.0 0.00 0.00 0.00 80 1013.5
20260502110642 47 105 0.0 0.0 0.00 0.00 0.00 81 1013.2
20260502110140 47 105 0.0 0.0 0.00 0.00 0.00 80 1013.2
20260502105639 48 105 0.0 0.0 0.00 0.00 0.00 80 1013.2
20260502105137 48 105 0.0 0.0 0.00 0.00 0.00 79 1013.2
20260502104605 48 104 0.0 0.0 0.00 0.00 0.00 78 1013.2
20260502104104 48 104 0.0 0.0 0.00 0.00 0.00 78 1013.2
20260502103603 48 105 0.0 0.0 0.00 0.00 0.00 78 1013.2
20260502103101 48 105 0.0 0.0 0.00 0.00 0.00 77 1013.2
20260502102600 48 105 0.0 0.0 0.00 0.00 0.00 77 1013.5
20260502102059 48 105 0.0 0.0 0.00 0.00 0.00 76 1013.2
20260502101558 48 105 0.0 0.0 0.00 0.00 0.00 76 1013.2
20260502101056 49 105 0.0 0.0 0.00 0.00 0.00 75 1013.2
20260502100555 49 104 0.0 0.0 0.00 0.00 0.00 75 1013.2
20260502091438 50 115 0.0 0.9 0.00 0.00 0.00 72 1013.2
20260502090936 50 115 0.9 0.9 0.00 0.00 0.00 72 1013.2
20260502090403 50 115 0.9 0.9 0.00 0.00 0.00 72 1013.2
20260502071231 52 30 1.7 3.5 0.00 0.00 0.00 62 1014.2
20260502070729 52 55 0.9 2.6 0.00 0.00 0.00 62 1014.2
20260502070228 52 8 1.7 2.6 0.00 0.00 0.00 62 1014.2
20260502065727 53 48 0.9 2.6 0.00 0.00 0.00 61 1013.9
20260502065225 53 58 0.9 2.6 0.00 0.00 0.00 62 1013.9
20260502064724 53 12 0.9 2.6 0.00 0.00 0.00 60 1013.9
20260502064223 53 7 0.9 2.6 0.00 0.00 0.00 59 1013.9
20260502063721 53 61 0.9 3.5 0.00 0.00 0.00 59 1013.9
20260502063220 54 108 0.9 3.5 0.00 0.00 0.00 60 1013.9
20260502062717 54 66 0.0 4.3 0.00 0.00 0.00 60 1013.9
20260502062216 54 43 1.7 4.3 0.00 0.00 0.00 58 1013.9
20260502061715 54 66 0.9 5.2 0.00 0.00 0.00 58 1013.9
20260502061214 54 25 0.9 5.2 0.00 0.00 0.00 56 1013.9
20260502060713 54 47 1.7 6.1 0.00 0.00 0.00 56 1013.9
20260502060212 54 45 1.7 6.1 0.00 0.00 0.00 56 1013.9